Home > Weather > Nagoya > Past weeks

Flag for Japan Weather for the Past 2 Weeks in Nagoya, Japan

Now
63 °F

Sunny.


Feels Like: 63 °F
Forecast: 46 / 77 °F
Wind: 7 mph from Northwest

Location: Nagoya Airport

Current Time: Apr 30, 2016 at 12:31:54 PM

Latest Report: Apr 30, 2016 at 11:30 AM


Visibility: 10 mi

Pressure: 29.98 "Hg

Humidity: 42%

Dew Point: 39 °F

Location of NagoyaLocation

Historic Weather in Nagoya — Graph

°F

Nagoya Temperature Yesterday

Maximum temperature yesterday: 59 °F (at 12:00 AM)
Minimum temperature yesterday: 54 °F (at 11:30 PM)
Average temperature yesterday: 57 °F

High & Low Weather Summary for the Past Weeks

 TemperatureHumidityPressure
High75 °F (Apr 17, 4:00 PM)94% (Apr 17, 9:00 AM)30.30 "Hg (Apr 17, 9:00 AM)
Low48 °F (Apr 16, 3:30 AM)31% (Apr 17, 4:00 PM)29.36 "Hg (Apr 28, 4:30 PM)
Average61 °F69%29.90 "Hg
* Reported Apr 15 10:00 AM — Apr 30 10:30 AM, Nagoya, Weather by CustomWeather, © 2016

Note: Actual official high and low records may vary slightly from our data, if they occured in-between our weather recording intervals... More about our weather records

Advertising

Nagoya Weather History for the Previous 24 Hours

Scroll right to see more
 ConditionsComfort  
Time TempWeatherWind HumidityBarometerVisibility
10:30 AM
Sat, Apr 30
59 °FSunny.6 mph55%29.98 "Hg10 mi
10:00 AM59 °FSunny.6 mph55%29.98 "Hg10 mi
9:30 AM59 °FSunny.8 mph55%29.98 "Hg10 mi
8:30 AM55 °FSunny.8 mph59%29.98 "Hg10 mi
8:00 AM55 °FSunny.7 mph59%29.98 "Hg10 mi
7:00 AM54 °FPassing clouds.9 mph67%29.98 "HgN/A
6:30 AM54 °FPassing clouds.9 mph67%29.95 "HgN/A
6:00 AM54 °FPassing clouds.13 mph67%29.95 "HgN/A
5:30 AM54 °FPassing clouds.13 mph67%29.95 "HgN/A
5:00 AM52 °FPassing clouds.13 mph72%29.95 "HgN/A
4:30 AM54 °FPassing clouds.13 mph63%29.92 "HgN/A
4:00 AM54 °FPassing clouds.16 mph67%29.92 "HgN/A
3:30 AM54 °FPassing clouds.20 mph67%29.92 "HgN/A
3:00 AM54 °FPassing clouds.21 mph63%29.92 "HgN/A
2:30 AM54 °FPassing clouds.20 mph67%29.92 "HgN/A
2:00 AM54 °FPassing clouds.17 mph63%29.92 "HgN/A
1:30 AM54 °FPassing clouds.21 mph58%29.89 "HgN/A
1:00 AM54 °FPassing clouds.18 mph58%29.89 "HgN/A
12:30 AM54 °FPassing clouds.20 mph58%29.89 "HgN/A
12:00 AM54 °FPassing clouds.18 mph63%29.89 "HgN/A
11:30 PM
Fri, Apr 29
54 °FPassing clouds.21 mph63%29.89 "HgN/A
11:00 PM55 °FPassing clouds.25 mph59%29.89 "HgN/A
10:30 PM55 °FPassing clouds.28 mph59%29.89 "HgN/A
10:00 PM55 °FPassing clouds.25 mph59%29.89 "HgN/A
9:30 PM55 °FPassing clouds.25 mph59%29.89 "HgN/A
9:00 PM55 °FPassing clouds.24 mph59%29.86 "HgN/A
8:30 PM55 °FPassing clouds.24 mph59%29.86 "HgN/A
8:00 PM55 °FPassing clouds.29 mph59%29.83 "HgN/A
7:30 PM55 °FPassing clouds.29 mph63%29.83 "HgN/A
7:00 PM57 °FPassing clouds.29 mph59%29.80 "HgN/A
6:30 PM57 °FPassing clouds.30 mph59%29.77 "HgN/A
6:00 PM57 °FPassing clouds.30 mph59%29.77 "HgN/A
5:00 PM59 °FPassing clouds.32 mph51%29.74 "HgN/A
4:30 PM59 °FPassing clouds.35 mph51%29.71 "HgN/A
4:00 PM59 °FPassing clouds.35 mph51%29.68 "HgN/A
3:30 PM59 °FPassing clouds.33 mph51%29.68 "HgN/A
3:00 PM59 °FPassing clouds.37 mph51%29.65 "HgN/A
2:00 PM59 °FPassing clouds.35 mph55%29.65 "HgN/A
1:30 PM59 °FPassing clouds.33 mph55%29.65 "HgN/A
1:00 PM59 °FPassing clouds.33 mph55%29.65 "HgN/A
12:30 PM59 °FPassing clouds.36 mph51%29.65 "HgN/A
12:00 PM59 °FPassing clouds.37 mph51%29.65 "HgN/A
Weather by CustomWeather, © 2016

See weather overviewHow to use our weather pages